Location: Bouillancy
(49.1149°N, 2.9308°E)
Time: 07:56:19
(UTC+00:00)

ISS - Pass Details

Date: 30 September 2020
Orbit: 417 x 420 km, 51.6° (Epoch: 30 October)

Event Time Altitude Azimuth Distance (km) Brightness Sun altitude
Rises 18:15:12 0° 284° (WNW) 2,370 2.2 -8.5°
Reaches altitude 10° 18:17:19 10° 288° (WNW) 1,505 0.6 -8.8°
Maximum altitude 18:20:40 60° 10° (N) 487 -3.5 -9.4°
Enters shadow 18:23:24 15° 89° (E) 1,260 -2.0 -9.8°
